Эдучанка

Россия / Иркутская область     57°21′56″N   102°09′20″E
темп.,
°C
ветер,
м/с
пор.,
м/с
влажн.,
%
обл.,
%
осадки,
мм/ч
давл.,
гПа
погр.,
м
11 мая, вт
вт1123:00+5с118369 0.3 101810
02:00+3ссз118945 0.3 101911
05:00+3сз119197 0.0 101911
08:00+7сз117687 0.0 1018258
11:00+11с23577 0.8 10171305
14:00+8ссв677530 1.8 1017897
17:00+8ссв456399 0.1 10171323
20:00+6ссв476859 0.3 1018940
12 мая, ср
ср1223:00+1ссв39825 0.0 1020328
02:00−1с28895 0.0 1021207
05:00−3с24945 0.0 1021104
08:00+2с36595 0.0 1021833
11:00+5ссв4541100 0.1 10202074
14:00+6с4537100 0.1 10192190
17:00+7ссв4537100 0.0 10182131
20:00+5ссв364715 0.0 1019529
13 мая, чт
чт1323:000св11715 0.0 102110
02:00−2ссв11770 0.0 102110
05:00−3с11790 0.0 102210
08:00+4ссв12510 0.0 1022406
11:00+9св12334 0.0 10201518
14:00+12с11270 0.0 10181798
17:00+12сз11260 0.0 10161988
20:00+9в00370 0.0 101610
14 мая, пт
пт1423:00+4ююв11505 0.0 101710
02:00+1ю22606 0.0 101711
05:000ююв226248 0.0 101613
08:00+6ююв2541100 0.0 1015288
11:00+12ююз572782 0.0 10121715
14:00+14ююз5724100 0.0 10101872
17:00+15ююз472388 0.0 10072277
20:00+12ююз233986 0.0 100654
15 мая, сб
сб1523:00+6ю2257100 0.0 100724
02:00+6з41090100 0.1 1009870
05:00+5з4989100 2.9 1010734
08:00+4з61194100 3.6 1012894
11:00+4з6107986 0.2 10131225
14:00+8з71045100 0.3 10112128
17:00+5зюз61284100 0.6 10101314
20:00+3зюз51397100 2.3 10091107